CZ-3B R/B (44494 NORAD) Tracking and Keplerian Element Data

This shows tracking and keplerian element data for the satellite.

Feedback or suggestion? Click here.




ElementValue
Catalog44494
NameCZ-3B R/B
Epoch Orbit61
Epoch Day257.14505687
Epoch Year2019
RAAN135.4033
Inclination28.4634
Eccentricity0.7211164
Argument of Perigee195.0762
Mean Anonmoly119.1205
Mean Motion2.40069809
Decay Rate0.0002869
L11 44494U 19053B 19257.14505687 .00028690 11339-5 18557-2 0 9998
L22 44494 28.4634 135.4033 7211164 195.0762 119.1205 2.40069809 619

Live tracking and technical data element details for CZ-3B R/B (NORAD 44494). CZ-3B R/B can be tracked NOW for your location showing map with azimuth and elevation plus other details from your city location.

Track the satellite on the map from your city or location and see movement details for azimuth, elevation, latitude, longitude, range, height, and movement on the map or in text.







IsCatalogInMostPopularTable: catalog: 44494, numindb: 11
Update: records affected: 1



GetName: 44494 CZ-3B R/B

Hit Count: updated at: Thu, 19 Sep 2019 17:19:19 GMT